Regional Weather Roundup
Issued by NWS Grand Forks, ND

Home | Current Version | Previous Version | Graphics & Text | Print | Product List | Glossary On
Versions: 1 2 3 4 5 6 7 8 9 10 11 12 13 14 15 16 17 18 19 20 21 22 23 24 25 26 27 28 29 30 31 32 33 34 35 36 37 38 39 40 41 42 43 44 45 46 47 48 49 50
000
ASUS43 KFGF 270831
RWRFGF
PRAIRIE TO PINES  WEATHER ROUNDUP
NATIONAL WEATHER SERVICE EASTERN NORTH DAKOTA/GRAND FORKS ND
300 AM CDT WED AUG 27 2014

 **SATELLITE DATA USED TO AUGMENT SKY COVER AT AUTOMATED STATIONS**
 *****  WEATHER ACROSS EASTERN NORTH DAKOTA  *****

CITY           SKY/WX    TMP DP  RH WIND       PRES   REMARKS
GRAND FORKS    CLEAR     51  50  96 SW3       30.16S
GRAND FRKS AFB CLEAR     51  51 100 W6        30.16F
GRAND FRKS NWS   N/A     52 N/A N/A SW1         N/A
DEVILS LAKE    CLEAR     57  50  77 SW7       30.15F
FARGO          FOG       51  51 100 CALM      30.18F VSB 1/4
WAHPETON ARPT  CLOUDY    59  55  88 CALM      30.19F
$$

 ***** WEATHER ACROSS CENTRAL AND WESTERN NORTH DAKOTA  *****

CITY           SKY/WX    TMP DP  RH WIND       PRES   REMARKS
BISMARCK       CLEAR     53  52  96 NE3       30.18F
MINOT          CLEAR     55  51  86 S8        30.14S
JAMESTOWN      FOG       50  49  96 CALM      30.19R VSB 1/4
MINOT AFB      CLEAR     51  51  99 SW7       30.13F
GARRISON         N/A     52  51  97 SW3       30.16F
WILLISTON      CLEAR     55  51  86 S3        30.12F
DICKINSON      CLEAR     50  49  96 S8        30.15S
HETTINGER      FOG       48  46  93 CALM      30.18S VSB 1/4
$$

 *****  OTHER AIRPORT OBSERVATIONS IN OUR AREA  *****

CITY           SKY/WX    TMP DP  RH WIND       PRES   REMARKS
WALHALLA       FAIR      46  46 100 CALM      30.15S
GRAFTON AIRPOR FAIR      50  50 100 W5        30.16R
VALLEY CITY AR CLOUDY    50  50 100 CALM      30.19S FOG
CANDO          FAIR      48  46  93 W5        30.17S
CAVALIER APRT  FAIR      46  46 100 S5        30.15S
GWINNER        CLOUDY    57  57 100 E5        30.20S
SHEYENNE NWR     N/A     58  58  99 CALM      29.95
ROLLA          FAIR      48  48 100 SW8       30.17S
 ***** THE ABOVE OBSERVATIONS ARE NON NWS ARE NOT QUALITY
       CONTROLLED AND MAY MIS-REPORT RAIN FOR SNOW...
$$

  *****  WEATHER ACROSS NORTHERN MINNESOTA  *****

CITY           SKY/WX    TMP DP  RH WIND       PRES   REMARKS
FLAG ISLAND    MOCLDY    55  48  76 SW9       30.15S
WARROAD        PTCLDY    48  45  87 CALM      30.18S
ROSEAU         CLEAR     46  43  87 SE6       30.17F
HALLOCK        CLEAR     46  45  93 SE6       30.15S
THF RVR FALLS  CLEAR     50  48  93 S5        30.18S
BAUDETTE       CLOUDY    45  43  93 SW3       30.19S
WASKISH        PTCLDY    46  45  93 CALM      30.19F
CROOKSTON      FOG       52  52 100 S5        30.18S VSB 1/2
$$
  *****  WEATHER ACROSS CENTRAL AND WEST MINNESOTA  *****

CITY           SKY/WX    TMP DP  RH WIND       PRES   REMARKS
FOSSTON        CLEAR     45  43  93 CALM      30.20S FOG
BEMIDJI        FOG       46  46 100 CALM      30.19F VSB 1/2
PARK RAPIDS    CLOUDY    57  55  93 CALM      30.20S
ELBOW LAKE     CLOUDY    58  57  97 CALM      30.19S
WADENA         CLOUDY    55  55 100 CALM      30.20S
DETROIT LAKES  PTCLDY    57  54  88 W5        30.20F
MOORHEAD       CLEAR     57  57 100 CALM      30.20S FOG
FERGUS FALLS   CLOUDY    59  57  94 CALM      30.20S
MORRIS MN      MOCLDY    57  55  94 CALM      30.19S
STAPLES        CLOUDY    55  55 100 CALM      30.20S
$$
  *****  WEATHER ELSEWHERE ACROSS MINNESOTA  *****

CITY           SKY/WX    TMP DP  RH WIND       PRES   REMARKS
DULUTH         MOCLDY    53  49  86 N3        30.19F
INTRNTL FALLS  CLEAR     37  36  96 CALM      30.19S
ELY            MOCLDY    48  46  93 CALM      30.19R
CLOQUET        CLOUDY    52  48  87 CALM      30.20S
WHEATON        CLOUDY    55  54  94 CALM      30.21S
BRAINERD       CLOUDY    55  55 100 CALM      30.21S
HIBBING        PTCLDY    43  41  93 CALM      30.20S FOG
ALEXANDRIA     CLOUDY    58  56  93 E5        30.20F
SAINT CLOUD    CLOUDY    61  56  83 NE5       30.19S
MINNEAPOLIS    MOCLDY    62  57  83 CALM      30.20R
$$

  *****  WEATHER ACROSS SOUTH DAKOTA  *****

CITY           SKY/WX    TMP DP  RH WIND       PRES   REMARKS
SIOUX FALLS    PTCLDY    59  57  93 NE5       30.17F
BROOKINGS      NOT AVBL
WATERTOWN      CLEAR     54  53  97 NE5       30.18S
HURON          PTCLDY    59  57  93 SE6       30.14F
SISSETON         N/A     59  58  96 CALM      30.18S
ABERDEEN       CLOUDY    58  56  93 E5        30.17F
MITCHELL       PTCLDY    59  58  96 E3        30.15S
PIERRE         MOCLDY    58  55  90 E8        30.11F
MOBRIDGE       CLEAR     54  52  93 CALM      30.14F
RAPID CITY     MOCLDY    59  53  80 E5        30.16S
$$

  *****  SOME WEATHER IN NEARBY STATES *****

CITY           SKY/WX    TMP DP  RH WIND       PRES   REMARKS
GLASGOW MT     CLEAR     54  50  86 E12       30.06S
GREAT FALLS MT CLEAR     56  43  61 S7        30.07S
CHEYENNE WY    MOCLDY    53  50  89 W7        30.23F
SCOTTSBLUFF NE PTCLDY    63  62  97 E5        30.14F
OMAHA NE       PTCLDY    70  64  81 E3        30.11F
DES MOINES IA  MOCLDY    71  63  75 E6        30.12F
DAVENPORT IA   CLOUDY    67  64  90 N5        30.14S
CHICAGO IL     MOCLDY    71  63  75 N3        30.11S
EAU CLAIRE WI  LGT RAIN  61  59  93 CALM      30.18S
LA CROSSE WI   CLOUDY    64  59  83 CALM      30.17S
$$

  *****  SOME NATIONAL WEATHER *****

CITY           SKY/WX    TMP DP  RH WIND       PRES   REMARKS
LA GUARDIA NY  CLEAR     74  63  68 W7        30.03F
RALEIGH NC     PTCLDY    62  59  90 CALM      30.06F
ATLANTA GA     CLEAR     69  59  70 NE8       30.08R
NEW ORLEANS LA PTCLDY    81  74  79 E5        29.96F
OKLAHOMA CITY  PTCLDY    73  66  78 SE7       30.07F
ALBUQUERQUE NM CLOUDY    62  57  83 CALM      30.30R
SALT LAKE CITY CLOUDY    60  55  83 CALM      30.17S
LOS ANGELES CA CLEAR     69  62  78 VRB5      29.99R
BOISE ID       CLEAR     65  47  52 SE7       30.07S
SEATTLE WA     CLEAR     71  53  52 N9        30.01R
$$

*** WEATHER ACROSS MANITOBA...SASKATCHEWAN AND ONTARIO ***
                ***ONTARIO***

CITY           SKY/WX    TMP DP  RH WIND       PRES   REMARKS
GERALDTON      CLOUDY    52  48  87 NW3       30.08S
THUNDER BAY    CLOUDY    55  52  88 W6        30.14S
SIOUX LOOKOUT  CLOUDY    50  48  93 CALM      30.14R
TORONTO        PTCLDY    68  57  68 NW10      30.03S
BIG TROUT LK   CLOUDY    46  46 100 N3        30.08R
PICKLE LAKE    NOT AVBL
DRYDEN         MOCLDY    48  48 100 SW6       30.15R
KENORA         PTCLDY    50  46  87 W6        30.17R
$$
                *** MANITOBA***

CITY           SKY/WX    TMP DP  RH WIND       PRES   REMARKS
BRANDON        CLEAR     46  45  93 W5        30.13S
DAUPHIN        CLEAR     55  48  76 SW13      30.06F
ISLAND LAKE    PTCLDY    48  48 100 CALM      30.09S
PILOT MOUND      N/A     43  41  93 S5          N/A
THE PAS        PTCLDY    54  50  87 SE8       29.92F
THOMPSON       MOCLDY    48  48 100 S6        29.96F
WINNIPEG       CLEAR     50  46  87 S7        30.15S
LYNN LAKE      CLEAR     54  46  76 MISG      29.81F
CHURCHILL      PTCLDY    48  43  81 S14       29.92F
GILLAM         CLEAR     41  41 100 S7        30.03S
$$
                ***SASKATCHEWAN***

CITY           SKY/WX    TMP DP  RH WIND       PRES   REMARKS
ESTEVAN        PTCLDY    50  48  93 S6        30.11S
KINDERSLEY     PTCLDY    54  48  82 S8        29.93S
LLOYDMINSTER   CLEAR     57  50  77 S8        29.87S
PRINCE ALBERT  PTCLDY    57  52  82 SW5       29.89S
REGINA         CLEAR     52  48  87 SE10      30.04S
YORKTON        CLEAR     54  48  82 S8        30.05S
N. BATTLEFORD  CLEAR     54  48  82 S5        29.90S
LA RONGE       CLEAR     61  54  77 S3        29.79F
SASKATOON      CLEAR     59  50  72 S10       29.93S
SWIFT CURRENT  CLEAR     57  46  67 S15       30.00S
$$
NOTE: THESE ARE AUTOMATED STATIONS WITH LIMITED QUALITY CONTROL
      "FAIR" INDICATES FEW OR NO CLOUDS BELOW 12,000 FEET WITH NO
      SIGNIFICANT WEATHER AND/OR OBSTRUCTIONS TO VISIBILITY.
      SKY/WX - SKY CONDITION AND SIGNIFICANT WEATHER.
      TMP - AIR TEMPERATURE.    DP   - DEWPOINT TEMPERATURE.
      RH  - RELATIVE HUMIDITY.  PRES - PRESSURE.
      HX  - HEAT INDEX.         WCI  - WIND CHILL INDEX.
$



USA.gov is the U.S. government's official web portal to all federal, state and local government web resources and services.